When you browse on this site, cookies collect data to enhance your experience and personalize the content and advertising you see.
Visit our Privacy Policy to learn more. By continuing to use the site, you agree to this use of cookies and data.
  • Em Portugal
  • Lista de países
  • Para 7 dias
  • Temperatura da água
  • Mapas de satélite
  • Mapa do tempo
  • Widgets de tempo
  • user-avatar
    Iniciar Sessão

    Previsão horária em Smolan

    Hoje, 22 Julho, Segunda-feira

    Tempo Temperatura Precipitação Vento Pressão Humidade
    00:00 +15°C° 0 mm 1 m/s 658 mmHg 74%
    01:00 +15°C° 0 mm 1 m/s 658 mmHg 75%
    02:00 +14°C° 0 mm 1 m/s 658 mmHg 76%
    03:00 +14°C° 0 mm 1 m/s 658 mmHg 77%
    04:00 +14°C° 0 mm 1 m/s 658 mmHg 78%
    05:00 +14°C° 0 mm 1 m/s 658 mmHg 79%
    06:00 +16°C° 0 mm 1 m/s 659 mmHg 72%
    07:00 +20°C° 0 mm 1 m/s 660 mmHg 65%
    08:00 +22°C° 0 mm 1 m/s 660 mmHg 58%
    09:00 +23°C° 0 mm 1 m/s 661 mmHg 53%
    10:00 +24°C° 0 mm 2 m/s 661 mmHg 49%
    11:00 +26°C° 0 mm 2 m/s 661 mmHg 44%
    12:00 +26°C° 0 mm 2 m/s 661 mmHg 44%
    13:00 +26°C° 0 mm 2 m/s 661 mmHg 44%
    14:00 +26°C° 0 mm 2 m/s 660 mmHg 45%
    15:00 +26°C° 0 mm 2 m/s 660 mmHg 46%
    16:00 +25°C° 0 mm 2 m/s 660 mmHg 47%
    17:00 +25°C° 0 mm 2 m/s 659 mmHg 48%
    18:00 +23°C° 0 mm 2 m/s 659 mmHg 55%
    19:00 +20°C° 0 mm 2 m/s 658 mmHg 62%
    20:00 +18°C° 0 mm 2 m/s 657 mmHg 69%
    21:00 +18°C° 0 mm 1 m/s 657 mmHg 70%
    22:00 +16°C° 0 mm 1 m/s 657 mmHg 71%
    23:00 +16°C° 0 mm 1 m/s 657 mmHg 72%

    Amanhã, 23 Julho, Terça-feira

    Tempo Temperatura Precipitação Vento Pressão Humidade
    00:00 +16°C° 0 mm 1 m/s 657 mmHg 74%
    01:00 +15°C° 0 mm 1 m/s 657 mmHg 76%
    02:00 +15°C° 0 mm 1 m/s 656 mmHg 77%
    03:00 +15°C° 0 mm 1 m/s 656 mmHg 78%
    04:00 +15°C° 0 mm 1 m/s 656 mmHg 80%
    05:00 +15°C° 0 mm 1 m/s 656 mmHg 81%
    06:00 +18°C° 0 mm 1 m/s 657 mmHg 75%
    07:00 +20°C° 0 mm 1 m/s 657 mmHg 69%
    08:00 +22°C° 0 mm 1 m/s 658 mmHg 63%
    09:00 +22°C° 0.4 mm 1 m/s 658 mmHg 62%
    10:00 +23°C° 0.4 mm 1 m/s 658 mmHg 61%
    11:00 +24°C° 0.4 mm 2 m/s 658 mmHg 60%
    12:00 +24°C° 0.6 mm 2 m/s 658 mmHg 59%
    13:00 +24°C° 0.6 mm 2 m/s 657 mmHg 58%
    14:00 +24°C° 0.6 mm 2 m/s 657 mmHg 58%
    15:00 +24°C° 0.3 mm 2 m/s 657 mmHg 59%
    16:00 +23°C° 0.3 mm 2 m/s 656 mmHg 61%
    17:00 +23°C° 0.3 mm 2 m/s 656 mmHg 63%
    18:00 +20°C° 0.1 mm 2 m/s 656 mmHg 71%
    19:00 +18°C° 0.1 mm 2 m/s 655 mmHg 79%
    20:00 +16°C° 0.1 mm 2 m/s 654 mmHg 87%
    21:00 +15°C° 0 mm 2 m/s 655 mmHg 89%
    22:00 +14°C° 0 mm 1 m/s 655 mmHg 90%
    23:00 +14°C° 0 mm 1 m/s 655 mmHg 92%

    Depois de amanhã, 24 Julho, Quarta-feira

    Tempo Temperatura Precipitação Vento Pressão Humidade
    00:00 +13°C° 0 mm 1 m/s 655 mmHg 93%
    01:00 +13°C° 0 mm 1 m/s 655 mmHg 93%
    02:00 +13°C° 0 mm 1 m/s 654 mmHg 94%
    03:00 +13°C° 0 mm 1 m/s 654 mmHg 94%
    04:00 +12°C° 0 mm 1 m/s 655 mmHg 94%
    05:00 +12°C° 0 mm 1 m/s 655 mmHg 94%
    06:00 +14°C° 0 mm 1 m/s 655 mmHg 89%
    07:00 +15°C° 0 mm 2 m/s 656 mmHg 84%
    08:00 +17°C° 0 mm 2 m/s 657 mmHg 80%
    09:00 +18°C° 0.1 mm 2 m/s 657 mmHg 75%
    10:00 +19°C° 0.1 mm 2 m/s 657 mmHg 70%
    11:00 +20°C° 0.1 mm 2 m/s 658 mmHg 66%
    12:00 +20°C° 0.3 mm 2 m/s 658 mmHg 64%
    13:00 +20°C° 0.3 mm 2 m/s 658 mmHg 62%
    14:00 +21°C° 0.3 mm 2 m/s 657 mmHg 60%
    15:00 +20°C° 0.1 mm 2 m/s 657 mmHg 62%
    16:00 +20°C° 0.1 mm 2 m/s 657 mmHg 64%
    17:00 +19°C° 0.1 mm 2 m/s 657 mmHg 66%
    18:00 +19°C° 0 mm 1 m/s 656 mmHg 71%
    19:00 +16°C° 0 mm 1 m/s 656 mmHg 76%
    20:00 +15°C° 0 mm 1 m/s 656 mmHg 82%
    21:00 +14°C° 0 mm 1 m/s 656 mmHg 82%
    22:00 +13°C° 0 mm 1 m/s 656 mmHg 83%
    23:00 +13°C° 0 mm 1 m/s 656 mmHg 84%

    25 Julho, Quinta-feira

    Tempo Temperatura Precipitação Vento Pressão Humidade
    00:00 +13°C° 0 mm 1 m/s 656 mmHg 85%
    01:00 +12°C° 0 mm 1 m/s 656 mmHg 85%
    02:00 +12°C° 0 mm 1 m/s 656 mmHg 85%
    03:00 +12°C° 0 mm 1 m/s 656 mmHg 86%
    04:00 +12°C° 0 mm 1 m/s 655 mmHg 86%
    05:00 +12°C° 0 mm 1 m/s 655 mmHg 86%
    06:00 +14°C° 0 mm 1 m/s 656 mmHg 79%
    07:00 +16°C° 0 mm 1 m/s 657 mmHg 72%
    08:00 +20°C° 0 mm 1 m/s 658 mmHg 65%
    09:00 +21°C° 0 mm 1 m/s 658 mmHg 59%
    10:00 +22°C° 0 mm 1 m/s 659 mmHg 53%
    11:00 +23°C° 0 mm 2 m/s 659 mmHg 47%
    12:00 +23°C° 0 mm 2 m/s 659 mmHg 48%
    13:00 +23°C° 0 mm 2 m/s 658 mmHg 49%
    14:00 +23°C° 0 mm 2 m/s 658 mmHg 50%
    15:00 +23°C° 0 mm 1 m/s 658 mmHg 52%
    16:00 +23°C° 0 mm 1 m/s 657 mmHg 54%
    17:00 +23°C° 0 mm 1 m/s 657 mmHg 56%
    18:00 +21°C° 0 mm 1 m/s 657 mmHg 64%
    19:00 +19°C° 0 mm 1 m/s 656 mmHg 71%
    20:00 +16°C° 0 mm 1 m/s 655 mmHg 79%
    21:00 +15°C° 0 mm 1 m/s 655 mmHg 80%
    22:00 +14°C° 0 mm 1 m/s 655 mmHg 82%
    23:00 +14°C° 0 mm 1 m/s 655 mmHg 83%

    26 Julho, Sexta-feira

    Tempo Temperatura Precipitação Vento Pressão Humidade
    00:00 +14°C° 0 mm 1 m/s 655 mmHg 83%
    01:00 +14°C° 0 mm 1 m/s 655 mmHg 83%
    02:00 +13°C° 0 mm 1 m/s 655 mmHg 82%
    03:00 +13°C° 0 mm 1 m/s 655 mmHg 83%
    04:00 +13°C° 0 mm 1 m/s 655 mmHg 83%
    05:00 +13°C° 0 mm 1 m/s 655 mmHg 84%
    06:00 +15°C° 0 mm 1 m/s 655 mmHg 76%
    07:00 +19°C° 0 mm 1 m/s 656 mmHg 69%
    08:00 +21°C° 0 mm 1 m/s 657 mmHg 61%
    09:00 +22°C° 0 mm 1 m/s 657 mmHg 57%
    10:00 +23°C° 0 mm 1 m/s 657 mmHg 54%
    11:00 +24°C° 0 mm 1 m/s 657 mmHg 51%
    12:00 +24°C° 0 mm 1 m/s 657 mmHg 51%
    13:00 +24°C° 0 mm 1 m/s 657 mmHg 51%
    14:00 +24°C° 0 mm 1 m/s 657 mmHg 52%
    15:00 +24°C° 0.1 mm 1 m/s 657 mmHg 54%
    16:00 +24°C° 0.1 mm 1 m/s 656 mmHg 55%
    17:00 +23°C° 0.1 mm 1 m/s 656 mmHg 57%
    18:00 +21°C° 0.1 mm 1 m/s 655 mmHg 66%
    19:00 +19°C° 0.1 mm 1 m/s 655 mmHg 75%
    20:00 +16°C° 0.1 mm 1 m/s 654 mmHg 85%
    21:00 +15°C° 0 mm 1 m/s 654 mmHg 86%
    22:00 +15°C° 0 mm 1 m/s 654 mmHg 87%
    23:00 +14°C° 0 mm 1 m/s 654 mmHg 88%

    27 Julho, Sábado

    Tempo Temperatura Precipitação Vento Pressão Humidade
    00:00 +14°C° 0 mm 1 m/s 654 mmHg 88%
    01:00 +14°C° 0 mm 1 m/s 654 mmHg 88%
    02:00 +14°C° 0 mm 1 m/s 654 mmHg 88%
    03:00 +13°C° 0 mm 1 m/s 654 mmHg 89%
    04:00 +13°C° 0 mm 1 m/s 654 mmHg 89%
    05:00 +13°C° 0 mm 1 m/s 654 mmHg 89%
    06:00 +15°C° 0 mm 1 m/s 654 mmHg 82%
    07:00 +18°C° 0 mm 1 m/s 655 mmHg 75%
    08:00 +20°C° 0 mm 1 m/s 656 mmHg 68%
    09:00 +22°C° 0 mm 1 m/s 656 mmHg 63%
    10:00 +23°C° 0 mm 1 m/s 656 mmHg 57%
    11:00 +24°C° 0 mm 2 m/s 656 mmHg 51%
    12:00 +24°C° 0 mm 2 m/s 656 mmHg 51%
    13:00 +24°C° 0 mm 2 m/s 656 mmHg 52%
    14:00 +25°C° 0 mm 2 m/s 655 mmHg 52%
    15:00 +24°C° 0 mm 2 m/s 655 mmHg 53%
    16:00 +24°C° 0 mm 2 m/s 655 mmHg 55%
    17:00 +24°C° 0 mm 2 m/s 654 mmHg 56%
    18:00 +20°C° 0 mm 2 m/s 654 mmHg 65%
    19:00 +18°C° 0 mm 2 m/s 653 mmHg 74%
    20:00 +16°C° 0 mm 1 m/s 652 mmHg 82%
    21:00 +15°C° 0 mm 1 m/s 652 mmHg 84%
    22:00 +15°C° 0 mm 1 m/s 652 mmHg 85%
    23:00 +14°C° 0 mm 1 m/s 652 mmHg 87%
    Mostrar mais